1501380000.32,61221,19.56,74456.0,7.75,-22.31,-22.87,0,*73
1501380001.56,61222,19.56,74456.8,7.73,-22.07,-22.73,0,*78
1501380002.8,61223,19.56,74458.0,7.73,-22.21,-22.87,0,*76
1501380004.02,61224,19.56,74462.0,7.75,-22.21,-22.87,0,*77
1501380005.28,61225,19.56,74458.5,7.75,-22.47,-23.19,0,*70
1501380006.53,61226,19.56,74458.3,7.73,-22.57,-23.23,0,*7D
1501380007.78,61227,19.56,74458.0,7.73,-22.57,-23.23,0,*7C
1501380009.01,61228,19.56,74462.8,7.75,-22.37,-23.03,0,*71
1501380010.25,61229,19.56,74460.5,7.73,-22.41,-23.19,0,*7C
1501380011.5,61230,19.56,74460.0,7.73,-22.67,-23.33,0,*78
1501380012.72,61231,19.56,74456.8,7.73,-22.41,-23.09,0,*74
1501380013.91,61232,19.56,74456.0,7.75,-22.63,-23.13,0,*7A
1501380015.13,61233,19.56,74454.0,7.73,-22.41,-22.87,0,*71
1501380016.4,61234,19.56,74456.3,7.73,-22.21,-22.73,0,*7B
1501380017.62,61235,19.56,74462.0,7.73,-22.37,-22.83,0,*72
1501380018.85,61236,19.56,74460.5,7.73,-22.53,-22.93,0,*72
1501380020.07,61237,19.56,74460.8,7.73,-22.41,-23.09,0,*72
1501380021.29,61238,19.56,74460.0,7.73,-22.67,-23.09,0,*79
1501380022.52,61239,19.56,74458.3,7.73,-22.53,-23.09,0,*7F
1501380023.77,61240,19.56,74460.5,7.73,-22.41,-23.19,0,*73
1501380025.02,61241,19.56,74460.5,7.73,-22.57,-23.19,0,*75
1501380026.24,61242,19.56,74460.8,7.73,-22.41,-23.09,0,*70
1501380027.46,61243,19.56,74460.5,7.73,-22.41,-22.93,0,*73
1501380028.68,61244,19.56,74462.0,7.73,-22.37,-22.87,0,*70
1501380029.9,61245,19.56,74460.8,7.73,-22.27,-22.87,0,*70
1501380031.15,61246,19.56,74466.0,7.73,-22.53,-23.19,0,*76
1501380032.38,61247,19.56,74460.8,7.71,-22.53,-23.19,0,*75
1501380033.58,61248,19.56,74462.3,7.71,-22.41,-22.93,0,*7A
1501380034.78,61249,19.56,74464.3,7.71,-22.27,-22.83,0,*7A
1501380036.03,61250,19.56,74460.5,7.73,-22.21,-22.83,0,*76
1501380037.22,61251,19.56,74456.8,7.71,-22.41,-22.93,0,*72
1501380038.42,61252,19.56,74462.3,7.71,-22.41,-23.09,0,*73
1501380039.64,61253,19.56,74462.8,7.71,-22.41,-23.19,0,*73
1501380040.85,61254,19.56,74460.5,7.71,-22.53,-23.09,0,*76
1501380042.06,61255,19.56,74460.8,7.71,-22.53,-22.93,0,*75
1501380043.28,61256,19.56,74462.3,7.71,-22.57,-23.19,0,*71
1501380044.52,61257,19.56,74456.5,7.71,-22.57,-23.23,0,*79
1501380045.73,61258,19.56,74456.5,7.67,-22.73,-23.39,0,*7C
1501380046.95,61259,19.56,74462.5,7.71,-22.73,-23.39,0,*7A
1501380048.16,61260,19.56,74462.0,7.67,-22.63,-23.29,0,*77
1501380049.39,61261,19.56,74456.8,7.71,-22.67,-23.23,0,*7F
1501380050.6,61262,19.56,74456.5,7.67,-22.63,-23.29,0,*75
1501380051.84,61263,19.56,74458.0,7.67,-22.73,-23.29,0,*75
1501380053.06,61264,19.56,74456.3,7.67,-22.57,-23.29,0,*74
1501380054.28,61265,19.56,74456.5,7.67,-22.63,-23.29,0,*72
1501380055.52,61266,19.56,74458.0,7.67,-22.73,-23.29,0,*70
1501380056.74,61267,19.56,74456.5,7.67,-22.73,-23.39,0,*70
1501380057.96,61268,19.56,74456.8,7.67,-22.63,-23.23,0,*75
1501380059.2,61269,19.56,74456.8,7.67,-22.73,-23.29,0,*7F
1501380060.43,61270,19.56,74456.0,7.65,-22.83,-23.43,0,*76
1501380061.67,61271,19.56,74460.3,7.65,-22.83,-23.49,0,*7D
1501380062.92,61272,19.56,74456.5,7.65,-22.67,-23.19,0,*71
1501380064.16,61273,19.56,74456.8,7.65,-22.63,-23.29,0,*77
1501380065.42,61274,19.56,74458.3,7.65,-22.53,-23.03,0,*7B
1501380066.67,61275,19.56,74458.8,7.63,-22.31,-22.77,0,*7A
1501380067.94,61276,19.56,74454.3,7.65,-22.31,-22.77,0,*7F
1501380069.17,61277,19.56,74454.5,7.65,-22.37,-22.83,0,*73
1501380070.4,61278,19.56,74452.8,7.65,-22.37,-22.93,0,*7D
1501380071.59,61279,19.56,74454.8,7.67,-22.41,-22.93,0,*7F
1501380072.85,61280,19.56,74456.5,7.65,-22.47,-22.97,0,*79
1501380074.05,61281,19.56,74458.8,7.63,-22.37,-22.93,0,*7D
1501380075.27,61282,19.56,74454.8,7.65,-22.07,-22.63,0,*74
1501380076.53,61283,19.56,74456.5,7.65,-22.17,-22.63,0,*74
1501380077.77,61284,19.56,74454.0,7.65,-21.97,-22.53,0,*7B
1501380079.05,61285,19.56,74454.3,7.65,-21.97,-22.47,0,*7F
1501380080.25,61286,19.56,74454.0,7.67,-22.03,-22.57,0,*71
1501380081.5,61287,19.56,74456.0,7.67,-21.97,-22.47,0,*7F
1501380082.69,61288,19.56,74456.0,7.71,-21.93,-22.41,0,*75
1501380083.91,61289,19.56,74454.0,7.71,-22.21,-22.67,0,*7A
1501380085.11,61290,19.56,74456.3,7.71,-21.93,-22.41,0,*7C
1501380086.3,61291,19.56,74456.3,7.71,-22.07,-22.53,0,*70
1501380087.49,61292,19.56,74460.5,7.67,-22.03,-22.57,0,*74
1501380088.68,61293,19.56,74458.3,7.71,-22.07,-22.53,0,*72
1501380089.9,61294,19.56,74456.0,7.71,-21.87,-22.41,0,*7D
1501380091.12,61295,19.56,74456.3,7.71,-21.87,-22.41,0,*7C
1501380092.34,61296,19.56,74458.8,7.71,-21.97,-22.41,0,*7E
1501380093.56,61297,19.56,74458.5,7.71,-22.11,-22.73,0,*73
1501380094.75,61298,19.56,74462.0,7.71,-22.41,-22.87,0,*72
1501380095.98,61299,19.56,74458.8,7.71,-22.67,-23.23,0,*78
1501380097.2,61300,19.56,74458.8,7.71,-22.67,-23.33,0,*78
1501380098.43,61301,19.56,74454.8,7.71,-22.57,-23.19,0,*72
1501380099.64,61302,19.56,74456.3,7.67,-22.73,-23.39,0,*72
1501380100.89,61303,19.56,74456.3,7.67,-22.77,-23.29,0,*76
1501380102.1,61304,19.56,74458.5,7.67,-22.63,-23.29,0,*74
1501380103.3,61305,19.56,74454.3,7.67,-22.57,-23.13,0,*7B
1501380104.53,61306,19.56,74452.5,7.67,-22.73,-23.43,0,*7B
1501380105.75,61307,19.56,74456.0,7.65,-22.93,-23.59,0,*7D
1501380107.0,61308,19.56,74452.5,7.65,-22.83,-23.49,0,*72
1501380108.25,61309,19.56,74454.0,7.65,-22.83,-23.33,0,*7E
1501380109.49,61310,19.56,74456.3,7.65,-22.63,-23.03,0,*7B
1501380110.73,61311,19.56,74456.8,7.65,-22.63,-23.29,0,*72
1501380111.98,61312,19.56,74458.0,7.65,-22.67,-23.19,0,*76
1501380113.24,61313,19.56,74452.8,7.65,-22.77,-23.43,0,*79
1501380114.49,61314,19.56,74452.3,7.65,-22.83,-23.49,0,*7F
1501380115.71,61315,19.56,74458.0,7.63,-22.83,-23.49,0,*78
1501380116.96,61316,19.56,74456.3,7.65,-22.83,-23.33,0,*70
1501380118.18,61317,19.56,74458.0,7.63,-22.83,-23.33,0,*77
1501380119.37,61318,19.56,74454.3,7.63,-22.97,-23.59,0,*71
1501380120.6,61319,19.56,74458.5,7.65,-22.97,-23.59,0,*76
1501380121.8,61320,19.56,74454.5,7.63,-22.97,-23.59,0,*7A
1501380122.99,61321,19.56,74454.5,7.63,-22.93,-23.59,0,*7F
1501380124.22,61322,19.56,74452.8,7.63,-22.97,-23.49,0,*79
1501380125.45,61323,19.56,74448.5,7.63,-22.97,-23.49,0,*78
1501380126.65,61324,19.56,74454.5,7.63,-22.83,-23.43,0,*70
1501380127.87,61325,19.56,74458.8,7.63,-22.83,-23.33,0,*76
1501380129.09,61326,19.56,74452.3,7.63,-23.03,-23.59,0,*70
1501380130.34,61327,19.56,74456.3,7.61,-23.09,-23.53,0,*73
1501380131.61,61328,19.56,74452.3,7.61,-23.19,-23.69,0,*74
1501380132.86,61329,19.56,74458.5,7.61,-23.19,-23.79,0,*74
1501380134.11,61330,19.56,74456.8,7.61,-23.23,-23.79,0,*75
1501380135.34,61331,19.56,74458.0,7.59,-22.97,-23.53,0,*79
1501380136.56,61332,19.56,74456.5,7.59,-22.97,-23.53,0,*7A
1501380137.84,61333,19.56,74458.3,7.61,-22.73,-23.23,0,*7D
1501380139.06,61334,19.56,74462.0,7.59,-22.83,-23.33,0,*7F
1501380140.29,61335,19.56,74460.8,7.59,-22.83,-23.23,0,*7F
1501380141.57,61336,19.56,74462.0,7.61,-22.73,-23.23,0,*78
1501380142.82,61337,19.56,74460.3,7.59,-22.73,-23.03,0,*70
1501380144.02,61338,19.56,74456.5,7.59,-22.67,-23.09,0,*70
1501380145.25,61339,19.56,74456.8,7.61,-22.57,-22.97,0,*7F
1501380146.45,61340,19.56,74460.8,7.59,-22.41,-22.87,0,*7C
1501380147.65,61341,19.56,74458.0,7.59,-22.27,-22.83,0,*79
1501380148.85,61342,19.56,74458.0,7.59,-22.41,-22.83,0,*7A
1501380150.05,61343,19.56,74452.3,7.59,-22.41,-22.87,0,*7F
1501380151.27,61344,19.56,74454.8,7.61,-22.27,-22.67,0,*7D
1501380152.52,61345,19.56,74456.3,7.61,-22.21,-22.67,0,*7A
1501380153.78,61346,19.56,74454.0,7.61,-22.57,-23.03,0,*7B
1501380155.0,61347,19.56,74454.0,7.59,-22.83,-23.49,0,*76
1501380156.2,61348,19.56,74458.8,7.59,-22.83,-23.39,0,*7E
1501380157.4,61349,19.56,74456.3,7.59,-22.41,-22.87,0,*75
1501380158.6,61350,19.56,74452.3,7.59,-22.41,-22.97,0,*7C
1501380159.79,61351,19.56,74452.8,7.59,-22.07,-22.57,0,*73
1501380161.01,61352,19.56,74452.0,7.61,-22.07,-22.53,0,*7F
1501380162.24,61353,19.56,74454.3,7.61,-22.07,-22.53,0,*7E
1501380163.43,61354,19.56,74452.5,7.59,-22.07,-22.57,0,*76
1501380164.65,61355,19.56,74448.0,7.61,-22.11,-22.57,0,*7B
1501380165.93,61356,19.56,74452.5,7.61,-22.21,-22.73,0,*7D
1501380167.16,61357,19.56,74452.8,7.63,-22.17,-22.63,0,*7A
1501380168.38,61358,19.56,74450.8,7.63,-22.07,-22.77,0,*71
1501380169.61,61359,19.56,74452.0,7.63,-22.17,-22.63,0,*74
1501380170.83,61360,19.56,74450.0,7.63,-21.97,-22.53,0,*76
1501380172.02,61361,19.56,74450.8,7.63,-22.07,-22.53,0,*7D
1501380173.24,61362,19.56,74448.3,7.65,-22.07,-22.63,0,*7B
1501380174.43,61363,19.56,74448.3,7.63,-22.07,-22.53,0,*7F
1501380175.65,61364,19.56,74450.5,7.63,-22.31,-22.67,0,*7A
1501380176.9,61365,19.56,74448.8,7.65,-22.21,-22.67,0,*7C
1501380178.13,61366,19.56,74448.3,7.65,-22.53,-22.93,0,*71
1501380179.41,61367,19.56,74448.3,7.65,-22.77,-23.19,0,*75
1501380180.66,61368,19.56,74450.0,7.65,-22.83,-23.33,0,*79
1501380181.87,61369,19.56,74450.0,7.63,-22.93,-23.43,0,*78
1501380183.14,61370,19.56,74454.3,7.65,-23.03,-23.49,0,*74
1501380184.36,61371,19.56,74454.3,7.65,-23.13,-23.59,0,*75
1501380185.64,61372,19.56,74450.5,7.65,-23.03,-23.49,0,*76
1501380186.85,61373,19.56,74452.8,7.63,-22.83,-23.29,0,*7E
1501380188.1,61374,19.56,74452.3,7.65,-22.93,-23.33,0,*75
1501380189.38,61375,19.56,74452.3,7.65,-22.77,-23.03,0,*7D
1501380190.59,61376,19.56,74452.8,7.63,-22.53,-22.93,0,*76
1501380191.87,61377,19.56,74456.3,7.65,-22.47,-22.77,0,*7E
1501380193.06,61378,19.56,74458.8,7.63,-22.63,-22.97,0,*7F
1501380194.31,61379,19.56,74458.5,7.65,-22.93,-23.29,0,*73
1501380195.57,61380,19.56,74458.0,7.65,-23.03,-23.43,0,*71
1501380196.79,61381,19.56,74456.0,7.63,-23.19,-23.59,0,*76
1501380198.01,61382,19.56,74458.8,7.63,-22.83,-23.33,0,*7B
1501380199.21,61383,19.56,74460.8,7.63,-22.53,-22.83,0,*7D
1501380200.46,61384,19.56,74460.5,7.63,-22.77,-23.03,0,*75
1501380201.72,61385,19.56,74460.0,7.63,-22.77,-23.19,0,*7F
1501380202.98,61386,19.56,74460.8,7.61,-22.83,-23.23,0,*7C
1501380204.23,61387,19.56,74462.3,7.61,-22.83,-23.23,0,*7D
1501380205.45,61388,19.56,74462.5,7.63,-22.67,-23.19,0,*73
1501380206.68,61389,19.56,74462.0,7.63,-22.67,-23.03,0,*79
1501380207.9,61390,19.56,74458.0,7.63,-22.21,-22.63,0,*74
1501380209.1,61391,19.56,74462.8,7.63,-22.67,-22.97,0,*7C
1501380210.38,61392,19.56,74458.3,7.65,-22.77,-23.19,0,*7F
1501380211.58,61393,19.56,74458.3,7.63,-22.83,-23.43,0,*7C
1501380212.81,61394,19.56,74460.3,7.63,-22.97,-23.49,0,*74
1501380214.03,61395,19.56,74460.0,7.63,-23.13,-23.65,0,*76
1501380215.23,61396,19.56,74460.0,7.63,-23.13,-23.75,0,*74
1501380216.42,61397,19.56,74458.8,7.63,-22.97,-23.59,0,*76
1501380217.64,61398,19.56,74460.5,7.63,-23.03,-23.59,0,*75
1501380218.89,61399,19.56,74458.8,7.61,-22.87,-23.49,0,*7A
1501380220.11,61400,19.56,74456.3,7.59,-22.87,-23.49,0,*76
1501380221.34,61401,19.56,74458.8,7.59,-22.97,-23.49,0,*76
1501380222.59,61402,19.56,74456.3,7.59,-23.03,-23.53,0,*72
1501380223.83,61403,19.56,74456.0,7.61,-22.87,-23.53,0,*75
1501380225.06,61404,19.56,74456.8,7.59,-22.97,-23.49,0,*73
1501380226.28,61405,19.56,74456.0,7.59,-22.97,-23.53,0,*79
1501380227.54,61406,19.56,74454.5,7.61,-23.09,-23.49,0,*7C
1501380228.79,61407,19.56,74454.3,7.59,-23.19,-23.53,0,*7C
1501380230.03,61408,19.56,74454.8,7.59,-23.19,-23.65,0,*76
1501380231.26,61409,19.56,74454.5,7.59,-23.33,-23.79,0,*72
1501380232.47,61410,19.56,74458.5,7.59,-23.39,-23.95,0,*72
1501380233.68,61411,19.56,74454.0,7.59,-23.39,-23.99,0,*7F
1501380234.93,61412,19.56,74456.3,7.59,-23.33,-23.69,0,*79
1501380236.18,61413,19.56,74456.8,7.57,-23.43,-23.85,0,*73
1501380237.41,61414,19.56,74458.5,7.55,-23.59,-23.95,0,*7C
1501380238.66,61415,19.56,74458.8,7.57,-23.53,-23.89,0,*78
1501380239.88,61416,19.56,74452.3,7.55,-23.49,-24.05,0,*71
1501380241.13,61417,19.56,74460.3,7.55,-23.49,-23.95,0,*7E
1501380242.35,61418,19.56,74456.0,7.55,-23.49,-23.89,0,*7C
1501380243.56,61419,19.56,74456.0,7.55,-23.43,-23.89,0,*77
1501380244.76,61420,19.56,74454.8,7.55,-23.43,-23.89,0,*7D
1501380246.01,61421,19.56,74454.8,7.55,-23.29,-23.65,0,*72
1501380247.24,61422,19.56,74454.8,7.53,-23.13,-23.59,0,*71
1501380248.47,61423,19.56,74452.0,7.53,-23.13,-23.59,0,*70
1501380249.7,61424,19.56,74452.8,7.53,-23.13,-23.59,0,*77
1501380250.93,61425,19.56,74448.3,7.53,-23.13,-23.59,0,*76
1501380252.18,61426,19.56,74450.0,7.53,-23.33,-23.75,0,*79
1501380253.42,61427,19.56,74454.8,7.53,-23.13,-23.43,0,*7F
1501380254.65,61428,19.56,74452.5,7.53,-23.13,-23.43,0,*70
1501380255.91,61429,19.56,74452.5,7.53,-22.97,-23.33,0,*7B
1501380257.14,61430,19.56,74452.0,7.53,-23.13,-23.59,0,*72
1501380258.39,61431,19.56,74452.8,7.53,-23.19,-23.59,0,*79
1501380259.65,61432,19.56,74452.0,7.53,-22.97,-23.33,0,*71
1501380260.85,61433,19.56,74456.0,7.51,-23.13,-23.39,0,*75
1501380262.08,61434,19.56,74458.3,7.51,-22.97,-23.19,0,*7D
1501380263.34,61435,19.56,74454.8,7.53,-22.21,-22.63,0,*7F
1501380264.6,61436,19.56,74458.5,7.53,-22.31,-22.63,0,*7D
1501380265.83,61437,19.56,74454.3,7.53,-22.37,-22.63,0,*7A
1501380267.04,61438,19.56,74458.3,7.55,-22.53,-22.83,0,*7F
1501380268.26,61439,19.56,74456.5,7.57,-22.63,-22.93,0,*7E
1501380269.47,61440,19.56,74454.8,7.55,-22.67,-23.09,0,*74
1501380270.7,61441,19.56,74456.0,7.55,-22.77,-23.13,0,*7F
1501380271.96,61442,19.56,74458.0,7.57,-22.77,-23.09,0,*75
1501380273.17,61443,19.56,74456.3,7.55,-22.93,-23.13,0,*77
1501380274.37,61444,19.56,74458.5,7.55,-22.83,-23.13,0,*71
1501380275.57,61445,19.56,74456.0,7.55,-22.63,-23.09,0,*75
1501380276.8,61446,19.56,74454.3,7.57,-22.57,-22.93,0,*71
1501380278.01,61447,19.63,74456.8,7.55,-22.63,-22.93,0,*75
1501380279.23,61448,19.56,74452.0,7.57,-22.41,-22.63,0,*77
1501380280.48,61449,19.56,74454.0,7.57,-22.31,-22.63,0,*71
1501380281.71,61450,19.56,74452.0,7.55,-22.31,-22.67,0,*7F
1501380282.96,61451,19.56,74454.3,7.57,-22.41,-22.73,0,*7E
1501380284.21,61452,19.56,74448.5,7.57,-22.31,-22.63,0,*7B
1501380285.46,61453,19.56,74450.5,7.57,-22.17,-22.63,0,*7E
1501380286.68,61454,19.56,74452.8,7.57,-22.11,-22.41,0,*7F
1501380287.91,61455,19.56,74450.3,7.59,-21.87,-22.11,0,*79
1501380289.1,61456,19.56,74450.0,7.59,-22.07,-22.53,0,*77
1501380290.32,61457,19.56,74450.3,7.59,-22.27,-22.73,0,*76
1501380291.58,61458,19.56,74454.5,7.61,-22.53,-23.03,0,*77
1501380292.78,61459,19.56,74450.5,7.59,-22.67,-22.97,0,*76
1501380294.01,61460,19.56,74450.8,7.59,-22.57,-23.03,0,*73
1501380295.22,61461,19.56,74448.5,7.59,-22.53,-22.97,0,*7A
1501380296.42,61462,19.56,74454.3,7.59,-22.67,-22.97,0,*7E
1501380297.67,61463,19.56,74450.8,7.59,-22.73,-23.03,0,*76
1501380298.88,61464,19.56,74446.8,7.59,-22.57,-22.97,0,*7B
1501380300.08,61465,19.56,74448.3,7.59,-22.41,-22.83,0,*78
1501380301.3,61466,19.56,74446.5,7.61,-22.11,-22.53,0,*78
1501380302.52,61467,19.56,74446.3,7.61,-22.07,-22.41,0,*7D
1501380303.74,61468,19.56,74444.8,7.61,-22.03,-22.37,0,*77
1501380304.93,61469,19.56,74444.5,7.63,-22.41,-22.87,0,*79
1501380306.14,61470,19.56,74444.3,7.63,-22.53,-22.97,0,*73
1501380307.39,61471,19.56,74450.8,7.63,-22.77,-23.19,0,*73
1501380308.59,61472,19.56,74450.0,7.63,-22.63,-22.97,0,*72
1501380309.84,61473,19.56,74448.5,7.63,-22.77,-23.29,0,*72
1501380311.08,61474,19.56,74454.3,7.65,-22.83,-23.33,0,*73
1501380312.28,61475,19.56,74450.3,7.63,-22.63,-22.97,0,*75
1501380313.48,61476,19.56,74450.8,7.63,-22.53,-22.83,0,*70
1501380314.68,61477,19.56,74452.0,7.63,-22.63,-22.97,0,*77
1501380315.9,61478,19.56,74452.0,7.63,-22.63,-22.77,0,*76
1501380317.1,61479,19.56,74454.0,7.63,-22.67,-22.93,0,*79
1501380318.33,61480,19.56,74452.3,7.63,-22.93,-23.19,0,*77
1501380319.57,61481,19.56,74456.3,7.65,-22.83,-23.29,0,*72
1501380320.78,61482,19.56,74452.8,7.63,-22.97,-23.43,0,*7E
1501380322.01,61483,19.56,74454.5,7.63,-22.93,-23.19,0,*74
1501380323.23,61484,19.56,74454.5,7.63,-22.93,-23.33,0,*7B
1501380324.44,61485,19.56,74452.3,7.63,-22.93,-23.43,0,*7D
1501380325.66,61486,19.56,74454.0,7.63,-23.19,-23.75,0,*78
1501380326.88,61487,19.56,74452.3,7.63,-23.29,-23.75,0,*7A
1501380328.13,61488,19.56,74452.5,7.63,-23.19,-23.49,0,*79
1501380329.36,61489,19.56,74454.5,7.63,-23.29,-23.75,0,*74
1501380330.6,61490,19.56,74452.8,7.59,-23.23,-23.53,0,*7B
1501380331.82,61491,19.56,74454.5,7.59,-23.39,-23.85,0,*7A
1501380333.04,61492,19.56,74452.0,7.59,-23.39,-23.85,0,*79
1501380334.29,61493,19.56,74454.3,7.61,-23.33,-23.79,0,*7A
1501380335.53,61494,19.56,74450.3,7.61,-23.39,-23.69,0,*76
1501380336.81,61495,19.56,74452.3,7.61,-23.53,-23.95,0,*78
1501380338.05,61496,19.56,74452.8,7.59,-23.49,-23.95,0,*7B
1501380339.24,61497,19.56,74452.5,7.59,-23.39,-23.79,0,*7F
1501380340.49,61498,19.56,74452.8,7.59,-23.53,-23.85,0,*7F
1501380341.75,61499,19.56,74452.3,7.59,-23.33,-23.85,0,*78
1501380342.97,61500,19.56,74454.8,7.57,-23.59,-23.89,0,*77
1501380344.19,61501,19.56,74452.3,7.57,-23.59,-23.89,0,*76
1501380345.44,61502,19.56,74458.0,7.57,-23.53,-23.89,0,*7F
1501380346.66,61503,19.56,74458.5,7.55,-23.59,-23.95,0,*7B
1501380347.92,61504,19.56,74456.3,7.57,-23.43,-23.85,0,*74
1501380349.13,61505,19.56,74458.8,7.57,-23.39,-23.89,0,*74
1501380350.38,61506,19.56,74454.8,7.57,-23.39,-23.85,0,*7B
1501380351.61,61507,19.56,74458.0,7.55,-23.79,-24.25,0,*71
1501380352.83,61508,19.56,74454.0,7.55,-23.79,-24.11,0,*79
1501380354.09,61509,19.56,74458.0,7.53,-23.75,-24.11,0,*72
1501380355.31,61510,19.56,74456.8,7.55,-23.75,-24.11,0,*7C
1501380356.54,61511,19.56,74460.0,7.55,-23.75,-24.11,0,*7D
1501380357.77,61512,19.56,74458.0,7.51,-23.75,-24.11,0,*7A
1501380359.0,61513,19.56,74458.3,7.53,-23.59,-23.89,0,*71
1501380360.24,61514,19.56,74458.3,7.51,-23.23,-23.65,0,*7B
1501380361.49,61515,19.56,74456.3,7.53,-23.29,-23.59,0,*7D
1501380362.74,61516,19.56,74458.0,7.51,-23.19,-23.53,0,*75
1501380364.0,61517,19.56,74458.8,7.53,-23.13,-23.49,0,*77
1501380365.23,61518,19.56,74462.0,7.51,-23.13,-23.23,0,*76
1501380366.49,61519,19.56,74456.3,7.53,-22.93,-23.19,0,*75
1501380367.75,61520,19.56,74456.0,7.53,-22.93,-23.19,0,*7F
1501380368.98,61521,19.56,74456.0,7.53,-22.83,-22.97,0,*78
1501380370.21,61522,19.56,74456.3,7.53,-22.63,-22.83,0,*70
1501380371.42,61523,19.56,74452.5,7.55,-22.93,-23.09,0,*7B
1501380372.62,61524,19.56,74458.8,7.55,-22.67,-22.97,0,*71
1501380373.86,61525,19.56,74452.3,7.55,-22.77,-22.97,0,*71
1501380375.09,61526,19.56,74452.8,7.53,-22.67,-22.93,0,*71
1501380376.3,61527,19.56,74456.0,7.55,-22.83,-23.09,0,*7E
1501380377.51,61528,19.56,74454.0,7.55,-22.93,-23.09,0,*70
1501380378.73,61529,19.56,74458.8,7.57,-22.63,-23.09,0,*7C
1501380379.97,61530,19.56,74456.3,7.55,-22.93,-23.19,0,*78
1501380381.22,61531,19.56,74450.5,7.57,-22.93,-23.29,0,*78
1501380382.43,61532,19.56,74450.3,7.55,-23.09,-23.43,0,*77
1501380383.63,61533,19.56,74452.0,7.55,-22.83,-23.13,0,*70
1501380384.87,61534,19.56,74454.5,7.55,-22.77,-23.13,0,*7C
1501380386.11,61535,19.56,74454.0,7.57,-22.87,-23.29,0,*79
1501380387.36,61536,19.63,74458.3,7.57,-23.09,-23.53,0,*70
1501380388.61,61537,19.56,74454.0,7.55,-23.29,-23.65,0,*74
1501380389.86,61538,19.56,74454.5,7.55,-23.19,-23.65,0,*78
1501380391.09,61539,19.56,74454.5,7.55,-23.09,-23.49,0,*76
1501380392.32,61540,19.56,74454.5,7.53,-23.09,-23.59,0,*7F
1501380393.55,61541,19.56,74456.5,7.55,-23.19,-23.59,0,*79
1501380394.79,61542,19.56,74456.3,7.57,-23.13,-23.53,0,*78
1501380396.05,61543,19.56,74456.0,7.55,-23.19,-23.49,0,*7A
1501380397.26,61544,19.56,74458.0,7.55,-22.93,-23.13,0,*71
1501380398.51,61545,19.56,74454.0,7.57,-22.57,-23.03,0,*7B
1501380399.72,61546,19.56,74452.3,7.55,-22.67,-22.97,0,*75
1501380400.97,61547,19.56,74452.8,7.57,-22.47,-22.87,0,*75
1501380402.2,61548,19.56,74458.8,7.55,-22.97,-23.49,0,*76
1501380403.43,61549,19.56,74458.0,7.55,-23.13,-23.65,0,*74
1501380404.66,61550,19.56,74458.3,7.55,-23.09,-23.49,0,*79
1501380405.88,61551,19.56,74454.8,7.55,-23.13,-23.65,0,*7D
1501380407.11,61552,19.56,74454.0,7.55,-22.93,-23.49,0,*79
1501380408.33,61553,19.56,74454.8,7.55,-22.93,-23.43,0,*72
1501380409.58,61554,19.56,74458.3,7.57,-22.93,-23.49,0,*7D
1501380410.78,61555,19.56,74456.3,7.55,-23.13,-23.59,0,*76
1501380411.98,61556,19.56,74450.0,7.55,-23.43,-23.89,0,*7D
1501380413.19,61557,19.56,74454.5,7.55,-23.43,-23.89,0,*7C
1501380414.4,61558,19.56,74454.5,7.57,-23.39,-23.79,0,*73
1501380415.63,61559,19.56,74448.0,7.55,-23.13,-23.65,0,*75
1501380416.88,61560,19.56,74450.0,7.55,-23.33,-23.65,0,*7D
1501380418.15,61561,19.56,74448.3,7.53,-23.33,-23.65,0,*7A
1501380419.41,61562,19.56,74450.3,7.53,-23.33,-23.75,0,*78
1501380420.65,61563,19.56,74452.3,7.53,-23.43,-23.75,0,*7E
1501380421.9,61564,19.56,74454.5,7.53,-23.29,-23.75,0,*75
1501380423.19,61565,19.56,74452.5,7.53,-23.49,-24.21,0,*74
1501380424.45,61566,19.56,74454.5,7.53,-23.79,-24.21,0,*74
1501380425.68,61567,19.56,74454.5,7.55,-23.75,-24.25,0,*7B
1501380426.95,61568,19.56,74452.5,7.53,-23.79,-24.21,0,*7A
1501380428.21,61569,19.56,74456.5,7.53,-23.79,-24.21,0,*7B
1501380429.46,61570,19.56,74454.8,7.53,-23.65,-24.05,0,*78
1501380430.71,61571,19.56,74458.0,7.51,-23.53,-23.95,0,*70
1501380431.96,61572,19.56,74458.3,7.53,-23.65,-24.05,0,*7A
1501380433.19,61573,19.56,74456.3,7.51,-23.79,-24.25,0,*76
1501380434.43,61574,19.56,74452.5,7.51,-23.65,-24.11,0,*7B
1501380435.68,61575,19.56,74456.3,7.49,-23.69,-24.05,0,*7A
1501380436.96,61576,19.56,74456.8,7.49,-23.53,-23.85,0,*7F
1501380438.22,61577,19.56,74456.5,7.49,-23.43,-23.85,0,*7F
1501380439.47,61578,19.56,74456.8,7.49,-23.39,-23.85,0,*7D
1501380440.72,61579,19.56,74458.5,7.49,-23.39,-23.85,0,*7C
1501380441.97,61580,19.56,74460.3,7.49,-23.59,-23.99,0,*71
1501380443.22,61581,19.56,74458.8,7.47,-23.75,-23.99,0,*70
1501380444.47,61582,19.56,74458.5,7.49,-23.85,-24.05,0,*70
1501380445.73,61583,19.56,74458.8,7.47,-23.85,-24.15,0,*7E
1501380446.96,61584,19.56,74460.3,7.47,-23.75,-24.05,0,*77
1501380448.18,61585,19.56,74458.8,7.47,-23.39,-23.75,0,*7E
1501380449.39,61586,19.56,74458.5,7.51,-23.39,-23.69,0,*77
1501380450.64,61587,19.56,74458.0,7.47,-23.43,-23.69,0,*7C
1501380451.88,61588,19.56,74462.0,7.47,-23.39,-23.69,0,*7E
1501380453.1,61589,19.56,74460.0,7.47,-23.43,-23.59,0,*71
1501380454.32,61590,19.56,74456.0,7.49,-23.39,-23.75,0,*74
1501380455.55,61591,19.56,74456.0,7.49,-23.39,-23.75,0,*75
1501380456.82,61592,19.56,74458.5,7.47,-23.19,-23.53,0,*7E
1501380458.08,61593,19.56,74458.5,7.49,-23.19,-23.43,0,*70
1501380459.33,61594,19.56,74460.5,7.47,-23.09,-23.23,0,*7E
1501380460.61,61595,19.56,74458.3,7.49,-23.03,-23.19,0,*72
1501380461.85,61596,19.56,74460.8,7.49,-22.93,-23.09,0,*78
1501380463.11,61597,19.56,74462.0,7.49,-22.77,-23.09,0,*73
1501380464.39,61598,19.56,74458.3,7.49,-22.77,-23.19,0,*7D
1501380465.66,61599,19.56,74462.3,7.49,-23.03,-23.29,0,*7D
1501380466.92,61600,19.56,74462.3,7.49,-22.93,-23.29,0,*76
1501380468.14,61601,19.56,74456.0,7.51,-22.73,-22.97,0,*74
1501380469.34,61602,19.56,74458.0,7.51,-22.67,-22.87,0,*73
1501380470.54,61603,19.56,74456.3,7.51,-22.67,-22.97,0,*73
1501380471.74,61604,19.56,74456.5,7.51,-22.83,-23.13,0,*73
1501380472.94,61605,19.56,74458.8,7.51,-22.83,-23.13,0,*72
1501380474.17,61606,19.56,74460.5,7.51,-22.87,-23.19,0,*7F
1501380475.39,61607,19.56,74462.0,7.51,-22.83,-23.03,0,*71
1501380476.61,61608,19.56,74460.0,7.51,-22.41,-22.73,0,*76
1501380477.84,61609,19.56,74460.0,7.51,-22.47,-22.87,0,*7A
1501380479.07,61610,19.56,74462.8,7.53,-22.63,-22.83,0,*72
1501380480.26,61611,19.56,74460.8,7.51,-22.87,-23.13,0,*73
1501380481.5,61612,19.56,74460.8,7.51,-22.97,-23.23,0,*72
1501380482.75,61613,19.56,74458.5,7.53,-22.83,-23.19,0,*7D
1501380483.98,61614,19.56,74456.3,7.53,-22.83,-23.13,0,*70
1501380485.24,61615,19.56,74458.8,7.53,-23.19,-23.59,0,*7D
1501380486.48,61616,19.56,74460.5,7.51,-23.23,-23.65,0,*7A
1501380487.74,61617,19.56,74456.8,7.53,-23.29,-23.59,0,*7C
1501380488.99,61618,19.56,74460.0,7.53,-23.13,-23.49,0,*7B
1501380490.19,61619,19.56,74460.0,7.51,-22.87,-23.09,0,*70
1501380491.45,61620,19.56,74458.3,7.53,-22.93,-23.19,0,*7C
1501380492.7,61621,19.56,74458.8,7.51,-22.73,-23.03,0,*7A
1501380493.96,61622,19.56,74458.0,7.53,-22.47,-22.67,0,*7F
1501380495.19,61623,19.56,74454.3,7.53,-22.37,-22.67,0,*79
1501380496.42,61624,19.56,74456.0,7.53,-22.67,-22.93,0,*70
1501380497.66,61625,19.56,74458.3,7.53,-22.93,-23.09,0,*78
1501380498.9,61626,19.56,74456.5,7.55,-22.93,-23.19,0,*7C
1501380500.13,61627,19.56,74458.3,7.55,-22.93,-23.19,0,*7D